This demonstration page uses our WeatherBlox Daily Observations layout. Learn more.

Left ArrowRight Arrow

40.92945, -100.16068

Hourly Observations for June 13, 2016

Temp ( °F °C ) Dew Point ( °F °C ) Humidity (%) Winds ( mph kmh ) Pressure ( in mb ) Visibility ( mi km ) Precip ( " mm )
12:15 am 00:15 Clear 72 22 58 14.7 63 63 NE 5 7 29.94 1014 10 16 N/A
12:35 am 00:35 Clear 71 21.5 59 15 67 67 N N/A 29.94 1014 10 16 N/A
12:55 am 00:55 Mostly Cloudy 71 21.7 59 14.9 65 65 E 3 6 29.94 1014 10 16 N/A
1:15 am 01:15 Cloudy 71 21.4 60 15.6 70 70 NNE 3 6 29.94 1014 10 16 N/A
1:35 am 01:35 Cloudy 71 21.6 60 15.6 69 69 NNW 6 9 29.94 1014 10 16 N/A
1:55 am 01:55 Cloudy 72 22 59 15.2 65 65 NE 5 7 29.94 1014 10 16 N/A
2:15 am 02:15 Cloudy with Heavy Rain 70 21 61 16 73 73 NNE 9 15 29.94 1014 7 11 0.03 0.76
2:35 am 02:35 Cloudy with Heavy Rain 68 20.2 63 17 82 82 WNW 13 20 29.94 1014 7 11 0.08 2.03
2:55 am 02:55 Cloudy with Heavy Rain 67 19.5 64 17.6 89 89 NNW 8 13 29.97 1015 2 3 0.42 10.67
3:15 am 03:15 Cloudy with Rain 67 19.4 64 18 92 92 NNW 6 9 29.97 1015 3 5 0.17 4.32
3:35 am 03:35 Cloudy with Light Rain 66 19 64 17.7 92 92 NW 5 7 29.97 1015 10 16 0.18 4.57
3:55 am 03:55 Cloudy with Strong Thunderstorms 66 19.1 64 18 93 93 W 9 15 30.00 1016 3 4 0.35 8.89
4:15 am 04:15 Cloudy with Heavy Rain 66 19 64 18 94 94 SW 10 17 30.00 1016 2 3 0.31 7.87
4:35 am 04:35 Cloudy with Heavy Rain 66 18.8 64 17.7 93 93 E 8 13 29.97 1015 2 3 0.62 15.75
4:55 am 04:55 Cloudy with Light Rain 66 18.8 64 17.8 94 94 NE 3 6 29.97 1015 5 8 0.71 18.03
5:15 am 05:15 Cloudy with Rain 66 18.8 64 17.8 94 94 NNE 8 13 29.97 1015 7 11 0.01 0.25
5:35 am 05:35 Cloudy with Light Rain 66 18.8 64 17.8 94 94 NNE 6 9 29.97 1015 5 8 0.04 1.02
5:55 am 05:55 Cloudy with Light Rain 66 19 64 17.7 92 92 NE 7 11 29.97 1015 10 16 0.05 1.27
6:15 am 06:15 Cloudy 66 19.1 64 17.5 91 91 N 6 9 29.97 1015 10 16 N/A
6:35 am 06:35 Cloudy 67 19.3 64 17.5 89 89 NNW 5 7 29.97 1015 10 16 N/A
6:55 am 06:55 Cloudy 67 19.5 63 17.3 87 87 NNW 6 9 29.97 1015 10 16 N/A
7:15 am 07:15 Cloudy with Light Rain 67 19.5 64 17.6 89 89 WNW 7 11 29.97 1015 10 16 N/A
7:35 am 07:35 Cloudy 67 19.6 64 17.8 89 89 NW 7 11 29.97 1015 10 16 N/A
7:55 am 07:55 Cloudy with Light Rain 68 19.8 64 18 89 89 NNW 7 11 29.97 1015 10 16 N/A
8:15 am 08:15 Cloudy with Light Rain 68 20 64 18 88 88 N 9 15 29.97 1015 10 16 N/A
8:35 am 08:35 Partly Cloudy 69 20.7 64 17.9 84 84 NNW 6 9 29.94 1014 10 16 N/A
8:55 am 08:55 Sunny 71 21.5 65 18.1 81 81 NNW 7 11 29.94 1014 10 16 N/A
9:15 am 09:15 Sunny 71 21.7 65 18.2 81 81 NNW 6 9 29.94 1014 10 16 N/A
9:35 am 09:35 Sunny 72 22 65 18.2 79 79 NW 5 7 29.94 1014 10 16 N/A
9:55 am 09:55 Sunny 72 22.2 65 18.5 80 80 WSW 5 7 29.94 1014 10 16 N/A
10:15 am 10:15 Sunny 74 23.1 66 19 78 78 W 3 6 29.94 1014 10 16 N/A
10:35 am 10:35 Sunny 77 24.9 65 18.2 66 66 NW 6 9 29.88 1012 10 16 N/A
11:35 am 11:35 Partly Cloudy 78 25.5 63 17.2 60 60 NNW 7 11 29.91 1013 10 16 N/A
11:55 am 11:55 Partly Cloudy 77 25 67 19.5 72 72 NNW 7 11 29.91 1013 10 16 N/A
12:15 pm 12:15 Sunny 78 25.6 67 19.2 68 68 ENE 3 6 29.91 1013 10 16 N/A
12:35 pm 12:35 Partly Cloudy 78 25.6 66 18.8 66 66 ENE 10 17 29.91 1013 10 16 N/A
12:55 pm 12:55 Partly Cloudy 79 26 65 18.6 64 64 ENE 10 17 29.91 1013 10 16 N/A
1:15 pm 13:15 Sunny 79 26 67 19.2 66 66 E 10 17 29.88 1012 10 16 N/A
1:35 pm 13:35 Partly Cloudy 80 26.5 66 19 63 63 E 9 15 29.88 1012 10 16 N/A
1:55 pm 13:55 Partly Cloudy 79 26.3 65 18.3 61 61 E 10 17 29.88 1012 10 16 N/A
2:15 pm 14:15 Mostly Cloudy 80 26.8 65 18.1 59 59 NE 9 15 29.83 1010 10 16 N/A
2:35 pm 14:35 Partly Cloudy 81 27.2 65 18.5 59 59 E 10 17 29.83 1010 10 16 N/A
2:55 pm 14:55 Mostly Cloudy 79 26.3 65 18.4 62 62 E 10 17 29.85 1011 10 16 N/A
3:15 pm 15:15 Partly Cloudy 81 27.4 64 17.8 56 56 ESE 9 15 29.83 1010 10 16 N/A
3:35 pm 15:35 Mostly Cloudy 81 27.2 66 19 61 61 E 8 13 29.83 1010 10 16 N/A
3:55 pm 15:55 Mostly Cloudy 81 27 65 18.4 59 59 E 10 17 29.80 1009 10 16 N/A
4:15 pm 16:15 Mostly Cloudy 81 27.2 65 18.3 58 58 E 8 13 29.80 1009 10 16 N/A
4:35 pm 16:35 Partly Cloudy 82 27.6 65 18.1 56 56 E 7 11 29.80 1009 10 16 N/A
4:55 pm 16:55 Partly Cloudy 81 27.4 65 18.5 58 58 ESE 8 13 29.77 1008 10 16 N/A
5:35 pm 17:35 Mostly Cloudy 82 27.8 66 18.8 58 58 ESE 9 15 29.77 1008 10 16 N/A
5:55 pm 17:55 Partly Cloudy 82 27.6 65 18.5 58 58 E 7 11 29.77 1008 10 16 N/A
6:15 pm 18:15 Partly Cloudy 82 27.9 65 18.6 57 57 E 8 13 29.77 1008 10 16 N/A
6:35 pm 18:35 Sunny 82 27.7 64 17.6 54 54 E 3 6 29.74 1007 10 16 N/A
6:55 pm 18:55 Sunny 82 27.5 65 18.2 57 57 ESE 6 9 29.74 1007 10 16 N/A
7:15 pm 19:15 Sunny 82 27.5 65 18.2 57 57 E 9 15 29.74 1007 10 16 N/A
7:35 pm 19:35 Sunny 81 27.1 65 18.2 58 58 E 10 17 29.71 1006 10 16 N/A
7:55 pm 19:55 Sunny 80 26.9 65 18.4 60 60 E 8 13 29.71 1006 10 16 N/A
8:15 pm 20:15 Sunny 79 26.1 65 18.5 63 63 E 10 17 29.68 1005 10 16 N/A
8:35 pm 20:35 Sunny 78 25.6 65 18.6 65 65 E 9 15 29.68 1005 10 16 N/A
8:55 pm 20:55 Sunny 77 25.1 66 18.7 68 68 E 7 11 29.68 1005 10 16 N/A
9:15 pm 21:15 Clear 76 24.6 65 18.5 69 69 E 9 15 29.71 1006 10 16 N/A
9:35 pm 21:35 Clear 76 24.6 65 18.3 68 68 E 9 15 29.71 1006 10 16 N/A
9:55 pm 21:55 Clear 76 24.2 65 18.3 70 70 ESE 9 15 29.71 1006 10 16 N/A
10:15 pm 22:15 Clear 75 24 65 18.4 71 71 ESE 8 13 29.74 1007 10 16 N/A
10:35 pm 22:35 Clear 74 23.6 65 18.6 74 74 ESE 8 13 29.74 1007 10 16 N/A
10:55 pm 22:55 Partly Cloudy 74 23.5 65 18.6 74 74 ESE 8 13 29.74 1007 10 16 N/A
11:15 pm 23:15 Mostly Cloudy 75 23.8 65 18.5 72 72 ESE 8 13 29.74 1007 7 11 N/A
11:35 pm 23:35 Mostly Cloudy 74 23.5 65 18.5 74 74 ESE 8 13 29.71 1006 10 16 N/A
11:55 pm 23:55 Mostly Cloudy 74 23.3 65 18.5 75 75 ESE 9 15 29.71 1006 10 16 N/A

Powered by AerisWeather